Flag for Canada Weather past 2 weeks in Chatham-Kent, Ontario, Canada

Now
67 °F

Mild.


Feels Like: 67 °F
Forecast: 61 / 73 °F
Wind: 2 mph from Southwest

Location: Erieau

Current Time: Jul 31, 2014 at 12:10:17 PM

Latest Report: Jul 31, 2014 at 11:00 AM


Visibility: N/A

Pressure: 30.03 "Hg

Humidity: 80%

Dew point: 61 °F

Location of Chatham-KentLocation

Historic Weather in Chatham-Kent — Graph

°F

Chatham-Kent temperature yesterday

Maximum temperature yesterday: 72 °F (at 4:00 PM)
Minimum temperature yesterday: 61 °F (at 7:00 AM)
Average temperature yesterday: 66 °F

Past Weeks' High & Low Weather Summary

 TemperatureHumidityPressure
High79 °F (Jul 22, 12:00 PM)100% (Jul 21, 4:00 AM)30.23 "Hg (Jul 21, 4:00 AM)
Low56 °F (Jul 29, 7:00 AM)38% (Jul 17, 1:00 PM)29.60 "Hg (Jul 27, 5:00 PM)
Average67 °F76%29.99 "Hg
* Reported Jul 16 10:00 AM — Jul 31 10:00 AM, Chatham-Kent, Weather by CustomWeather, © 2014

Note: Actual official high and low records may vary slightly from our data, if they occured in-between our weather recording intervals... More about our weather records

Advertising

Chatham-Kent weather history for previous 24 hours

 ConditionsComfort  
Time TempWeatherWind HumidityBarometerVisibility
10:00 AM
Jul 31
65 °FMild.3 mph80%30.02 "HgN/A
9:00 AM64 °FMild.3 mph82%30.02 "HgN/A
8:00 AM62 °FCool.5 mph79%30.00 "HgN/A
7:00 AM61 °FCool.3 mph84%29.99 "HgN/A
6:00 AM61 °FCool.3 mph85%29.98 "HgN/A
5:00 AM62 °FCool.5 mph83%29.96 "HgN/A
4:00 AM62 °FCool.3 mph81%29.96 "HgN/A
3:00 AM62 °FMild.2 mph89%29.96 "HgN/A
2:00 AM64 °FMild.3 mph89%29.96 "HgN/A
1:00 AM65 °FMild.6 mph83%29.96 "HgN/A
12:00 AM65 °FMild.1 mph76%29.97 "HgN/A
11:00 PM
Jul 30
65 °FMild.2 mph81%29.98 "HgN/A
10:00 PM66 °FMild.7 mph66%29.98 "HgN/A
9:00 PM67 °FMild.2 mph83%29.97 "HgN/A
8:00 PM65 °FMild.5 mph84%29.96 "HgN/A
7:00 PM67 °FMild.7 mph82%29.96 "HgN/A
6:00 PM68 °FMild.3 mph75%29.96 "HgN/A
5:00 PM71 °FMild.3 mph71%29.96 "HgN/A
4:00 PM72 °FMild.3 mph67%29.96 "HgN/A
3:00 PM71 °FMild.6 mph76%29.97 "HgN/A
2:00 PM67 °FMild.6 mph81%29.98 "HgN/A
1:00 PM67 °FMild.7 mph79%29.99 "HgN/A
12:00 PM67 °FMild.6 mph80%29.99 "HgN/A
Weather by CustomWeather, © 2014

See weather overviewHow to use our weather pages